| time (UTC) | temp F | wind direction | speed MPH | gust MPH | rain 1hr in | rain 24hr in | rain mn in | humidity % | barometer mb |
| 20260508153131 | 46 | 15 | 2.0 | 5.0 | 0.00 | 0.00 | 0.00 | 88 | 1017.6 |
| 20260508152130 | 46 | 14 | 2.0 | 5.0 | 0.00 | 0.00 | 0.00 | 87 | 1017.5 |
| 20260508151631 | 46 | 15 | 2.0 | 3.0 | 0.00 | 0.00 | 0.00 | 88 | 1017.6 |
| 20260508151130 | 46 | 15 | 2.0 | 3.0 | 0.00 | 0.00 | 0.00 | 88 | 1017.6 |
| 20260508150631 | 46 | 15 | 2.0 | 5.0 | 0.00 | 0.00 | 0.00 | 87 | 1017.7 |
| 20260508150131 | 46 | 15 | 2.0 | 5.0 | 0.00 | 0.00 | 0.00 | 87 | 1017.7 |
| 20260508145631 | 45 | 15 | 3.0 | 6.0 | 0.00 | 0.00 | 0.00 | 86 | 1017.7 |
| 20260508145131 | 46 | 13 | 4.0 | 6.0 | 0.00 | 0.00 | 0.00 | 84 | 1017.7 |
| 20260508144631 | 46 | 14 | 2.0 | 7.0 | 0.00 | 0.00 | 0.00 | 88 | 1017.7 |
| 20260508142631 | 45 | 14 | 3.0 | 3.0 | 0.00 | 0.00 | 0.00 | 87 | 1018.0 |
| 20260508142130 | 46 | 14 | 3.0 | 3.0 | 0.00 | 0.00 | 0.00 | 87 | 1018.0 |
| 20260508141631 | 47 | 14 | 2.0 | 3.0 | 0.00 | 0.00 | 0.00 | 85 | 1018.0 |
| 20260508141131 | 48 | 13 | 1.0 | 5.0 | 0.00 | 0.00 | 0.00 | 86 | 1018.1 |
| 20260508140631 | 49 | 13 | 3.0 | 5.0 | 0.00 | 0.00 | 0.00 | 84 | 1018.1 |
| 20260508135631 | 48 | 13 | 1.0 | 3.0 | 0.00 | 0.00 | 0.00 | 79 | 1018.2 |
| 20260508135130 | 48 | 14 | 1.0 | 3.0 | 0.00 | 0.00 | 0.00 | 74 | 1018.3 |
| 20260508134631 | 48 | 13 | 1.0 | 3.0 | 0.00 | 0.00 | 0.00 | 84 | 1018.4 |
| 20260508134131 | 47 | 13 | 1.0 | 3.0 | 0.00 | 0.00 | 0.00 | 85 | 1018.3 |
| 20260508133630 | 47 | 12 | 1.0 | 2.0 | 0.00 | 0.00 | 0.00 | 87 | 1018.4 |
| 20260508133131 | 47 | 14 | 3.0 | 6.0 | 0.00 | 0.00 | 0.00 | 86 | 1018.5 |
| 20260508132631 | 47 | 13 | 3.0 | 6.0 | 0.00 | 0.00 | 0.00 | 86 | 1018.4 |
| 20260508132130 | 47 | 10 | 2.0 | 3.0 | 0.00 | 0.00 | 0.00 | 86 | 1018.4 |
| 20260508131631 | 47 | 0 | 2.0 | 3.0 | 0.00 | 0.00 | 0.00 | 85 | 1018.5 |
| 20260508131130 | 47 | 14 | 2.0 | 6.0 | 0.00 | 0.00 | 0.00 | 85 | 1018.5 |
| 20260508130630 | 46 | 15 | 1.0 | 3.0 | 0.00 | 0.00 | 0.00 | 87 | 1018.5 |
| 20260508130131 | 46 | 15 | 2.0 | 3.0 | 0.00 | 0.00 | 0.00 | 87 | 1018.5 |
| 20260508125631 | 45 | 16 | 2.0 | 3.0 | 0.00 | 0.00 | 0.00 | 88 | 1018.5 |
| 20260508125133 | 45 | 15 | 2.0 | 3.0 | 0.00 | 0.00 | 0.00 | 85 | 1018.6 |
| 20260508124631 | 44 | 16 | 2.0 | 3.0 | 0.00 | 0.00 | 0.00 | 86 | 1018.7 |
| 20260508124131 | 44 | 15 | 3.0 | 5.0 | 0.00 | 0.00 | 0.00 | 86 | 1018.6 |
| 20260508123630 | 44 | 15 | 3.0 | 5.0 | 0.00 | 0.00 | 0.00 | 83 | 1018.7 |
| 20260508123130 | 43 | 15 | 3.0 | 5.0 | 0.00 | 0.00 | 0.00 | 85 | 1018.7 |
| 20260508122630 | 43 | 15 | 3.0 | 8.0 | 0.00 | 0.00 | 0.00 | 85 | 1018.7 |
| 20260508122131 | 43 | 15 | 3.0 | 6.0 | 0.00 | 0.00 | 0.00 | 85 | 1018.6 |
| 20260508121130 | 44 | 15 | 2.0 | 5.0 | 0.00 | 0.00 | 0.00 | 83 | 1018.7 |
| 20260508120631 | 43 | 15 | 3.0 | 6.0 | 0.00 | 0.00 | 0.00 | 85 | 1018.6 |
| 20260508120131 | 44 | 15 | 2.0 | 3.0 | 0.00 | 0.00 | 0.00 | 81 | 1018.7 |
| 20260508115630 | 43 | 14 | 2.0 | 5.0 | 0.00 | 0.00 | 0.00 | 82 | 1018.6 |
| 20260508115130 | 43 | 15 | 2.0 | 6.0 | 0.00 | 0.00 | 0.00 | 82 | 1018.5 |
| 20260508114631 | 43 | 15 | 1.0 | 3.0 | 0.00 | 0.00 | 0.00 | 81 | 1018.6 |
| 20260508114130 | 43 | 14 | 2.0 | 3.0 | 0.00 | 0.00 | 0.00 | 81 | 1018.6 |
| 20260508113630 | 42 | 14 | 3.0 | 5.0 | 0.00 | 0.00 | 0.00 | 81 | 1018.6 |
| 20260508113130 | 41 | 14 | 4.0 | 9.0 | 0.00 | 0.00 | 0.00 | 82 | 1018.6 |
| 20260508112630 | 41 | 15 | 3.0 | 7.0 | 0.00 | 0.00 | 0.00 | 82 | 1018.6 |
| 20260508112130 | 41 | 16 | 3.0 | 6.0 | 0.00 | 0.00 | 0.00 | 82 | 1018.6 |
| 20260508111630 | 42 | 15 | 3.0 | 6.0 | 0.00 | 0.00 | 0.00 | 82 | 1018.5 |
| 20260508111133 | 42 | 17 | 2.0 | 5.0 | 0.00 | 0.00 | 0.00 | 82 | 1018.5 |
| 20260508110631 | 41 | 17 | 2.0 | 5.0 | 0.00 | 0.00 | 0.00 | 83 | 1018.5 |
| 20260508110130 | 42 | 17 | 3.0 | 6.0 | 0.00 | 0.00 | 0.00 | 84 | 1018.5 |
| 20260508105630 | 42 | 16 | 4.0 | 7.0 | 0.00 | 0.00 | 0.00 | 84 | 1018.5 |
| 20260508105131 | 42 | 17 | 3.0 | 6.0 | 0.00 | 0.00 | 0.00 | 86 | 1018.6 |
| 20260508104630 | 43 | 16 | 3.0 | 6.0 | 0.00 | 0.00 | 0.00 | 85 | 1018.6 |
| 20260508103630 | 44 | 17 | 3.0 | 7.0 | 0.00 | 0.00 | 0.00 | 86 | 1018.6 |
| 20260508103131 | 43 | 16 | 2.0 | 7.0 | 0.00 | 0.00 | 0.00 | 84 | 1018.5 |
| 20260508102630 | 43 | 15 | 4.0 | 8.0 | 0.00 | 0.00 | 0.00 | 85 | 1018.5 |
| 20260508102131 | 43 | 15 | 5.0 | 7.0 | 0.00 | 0.00 | 0.00 | 83 | 1018.5 |
| 20260508101630 | 42 | 16 | 3.0 | 6.0 | 0.00 | 0.00 | 0.00 | 83 | 1018.5 |
| 20260508101130 | 42 | 17 | 3.0 | 6.0 | 0.00 | 0.00 | 0.00 | 85 | 1018.5 |
| 20260508100631 | 42 | 17 | 3.0 | 7.0 | 0.00 | 0.00 | 0.00 | 87 | 1018.5 |
| 20260508100131 | 43 | 14 | 3.0 | 7.0 | 0.00 | 0.00 | 0.00 | 87 | 1018.4 |
| 20260508095630 | 44 | 15 | 3.0 | 7.0 | 0.00 | 0.00 | 0.00 | 88 | 1018.5 |
| 20260508095130 | 45 | 17 | 1.0 | 3.0 | 0.00 | 0.00 | 0.00 | 84 | 1018.5 |
| 20260508094631 | 44 | 15 | 2.0 | 8.0 | 0.00 | 0.00 | 0.00 | 82 | 1018.5 |
| 20260508094130 | 42 | 16 | 1.0 | 6.0 | 0.00 | 0.00 | 0.00 | 84 | 1018.5 |
| 20260508093630 | 42 | 14 | 2.0 | 6.0 | 0.00 | 0.00 | 0.00 | 85 | 1018.5 |
| 20260508093130 | 42 | 17 | 3.0 | 8.0 | 0.00 | 0.00 | 0.00 | 87 | 1018.5 |
| 20260508092634 | 43 | 15 | 3.0 | 8.0 | 0.00 | 0.00 | 0.00 | 86 | 1018.5 |
| 20260508091630 | 43 | 14 | 4.0 | 8.0 | 0.00 | 0.00 | 0.00 | 85 | 1018.4 |
| 20260508090630 | 44 | 16 | 5.0 | 8.0 | 0.00 | 0.00 | 0.00 | 88 | 1018.3 |
| 20260508090130 | 46 | 15 | 2.0 | 6.0 | 0.00 | 0.00 | 0.00 | 88 | 1018.3 |
| 20260508085630 | 45 | 17 | 1.0 | 3.0 | 0.00 | 0.00 | 0.00 | 85 | 1018.2 |
| 20260508085130 | 43 | 17 | 1.0 | 8.0 | 0.00 | 0.00 | 0.00 | 87 | 1018.2 |
| 20260508084630 | 43 | 14 | 3.0 | 6.0 | 0.00 | 0.00 | 0.00 | 88 | 1018.2 |
| 20260508083630 | 44 | 15 | 3.0 | 6.0 | 0.00 | 0.00 | 0.00 | 88 | 1018.1 |
| 20260508083130 | 45 | 14 | 2.0 | 5.0 | 0.00 | 0.00 | 0.00 | 88 | 1018.1 |
| 20260508082630 | 46 | 13 | 2.0 | 3.0 | 0.00 | 0.00 | 0.00 | 87 | 1018.1 |
| 20260508081630 | 47 | 12 | 1.0 | 3.0 | 0.00 | 0.00 | 0.00 | 87 | 1018.1 |
| 20260508081130 | 47 | 13 | 1.0 | 3.0 | 0.00 | 0.00 | 0.00 | 88 | 1018.0 |
| 20260508080630 | 46 | 14 | 2.0 | 5.0 | 0.00 | 0.00 | 0.00 | 88 | 1018.0 |
| 20260508075630 | 43 | 15 | 2.0 | 3.0 | 0.00 | 0.00 | 0.00 | 88 | 1018.0 |
| 20260508075130 | 43 | 13 | 0.0 | 2.0 | 0.00 | 0.00 | 0.00 | 84 | 1018.0 |
| 20260508074630 | 42 | 13 | 1.0 | 3.0 | 0.00 | 0.00 | 0.00 | 83 | 1017.9 |
| 20260508074130 | 42 | 13 | 1.0 | 3.0 | 0.00 | 0.00 | 0.00 | 85 | 1017.9 |
| 20260508073131 | 42 | 13 | 1.0 | 3.0 | 0.00 | 0.00 | 0.00 | 86 | 1017.8 |
| 20260508072630 | 42 | 12 | 1.0 | 3.0 | 0.00 | 0.00 | 0.00 | 86 | 1017.7 |
| 20260508072130 | 42 | 11 | 2.0 | 3.0 | 0.00 | 0.00 | 0.00 | 86 | 1017.6 |
| 20260508071630 | 42 | 12 | 1.0 | 3.0 | 0.00 | 0.00 | 0.00 | 86 | 1017.6 |
| 20260508070630 | 42 | 12 | 2.0 | 5.0 | 0.00 | 0.00 | 0.00 | 86 | 1017.6 |
| 20260508070130 | 42 | 12 | 1.0 | 2.0 | 0.00 | 0.00 | 0.00 | 87 | 1017.6 |
| 20260508065630 | 42 | 12 | 1.0 | 3.0 | 0.00 | 0.00 | 0.00 | 88 | 1017.5 |
| 20260508065130 | 42 | 11 | 2.0 | 3.0 | 0.00 | 0.00 | 0.00 | 88 | 1017.5 |
| 20260508064130 | 44 | 11 | 0.0 | 2.0 | 0.00 | 0.00 | 0.00 | 88 | 1017.4 |
| 20260508063630 | 44 | 11 | 1.0 | 3.0 | 0.00 | 0.00 | 0.00 | 88 | 1017.3 |
| 20260508063130 | 44 | 11 | 1.0 | 3.0 | 0.00 | 0.00 | 0.00 | 87 | 1017.3 |
| 20260508062630 | 46 | 11 | 1.0 | 5.0 | 0.00 | 0.00 | 0.00 | 85 | 1017.3 |
| 20260508062130 | 46 | 0 | 1.0 | 3.0 | 0.00 | 0.00 | 0.00 | 86 | 1017.2 |
| 20260508061130 | 46 | 0 | 1.0 | 3.0 | 0.00 | 0.00 | 0.00 | 86 | 1017.2 |
| 20260508060131 | 45 | 0 | 1.0 | 3.0 | 0.00 | 0.00 | 0.00 | 86 | 1017.1 |
| 20260508055630 | 45 | 0 | 2.0 | 5.0 | 0.00 | 0.00 | 0.00 | 82 | 1017.1 |
| 20260508055130 | 45 | 0 | 1.0 | 5.0 | 0.00 | 0.00 | 0.00 | 83 | 1017.0 |
| 20260508054630 | 45 | 0 | 2.0 | 5.0 | 0.00 | 0.00 | 0.00 | 82 | 1017.1 |
| 20260508054130 | 45 | 0 | 2.0 | 3.0 | 0.00 | 0.00 | 0.00 | 83 | 1017.2 |
| 20260508053630 | 44 | 0 | 0.0 | 3.0 | 0.00 | 0.00 | 0.00 | 87 | 1017.2 |
| 20260508053130 | 43 | 0 | 0.0 | 5.0 | 0.00 | 0.00 | 0.00 | 86 | 1017.2 |
| 20260508052630 | 42 | 0 | 0.0 | 5.0 | 0.00 | 0.00 | 0.00 | 87 | 1017.2 |
| 20260508052130 | 41 | 0 | 1.0 | 5.0 | 0.00 | 0.00 | 0.00 | 87 | 1017.2 |
| 20260508051630 | 41 | 0 | 5.0 | 6.0 | 0.00 | 0.00 | 0.00 | 87 | 1017.2 |
| 20260508050630 | 41 | 0 | 5.0 | 8.0 | 0.00 | 0.00 | 0.00 | 88 | 1017.2 |
| 20260508050130 | 41 | 1 | 6.0 | 7.0 | 0.00 | 0.00 | 0.00 | 87 | 1017.3 |
| 20260508044630 | 39 | 2 | 1.0 | 3.0 | 0.00 | 0.00 | 0.00 | 88 | 1017.6 |
| 20260508044130 | 39 | 3 | 1.0 | 3.0 | 0.00 | 0.00 | 0.00 | 87 | 1017.5 |
| 20260508043630 | 39 | 0 | 2.0 | 3.0 | 0.00 | 0.00 | 0.00 | 87 | 1017.4 |
| 20260508043130 | 38 | 0 | 1.0 | 3.0 | 0.00 | 0.00 | 0.00 | 87 | 1017.4 |
| 20260508042630 | 38 | 0 | 0.0 | 3.0 | 0.00 | 0.00 | 0.00 | 88 | 1017.4 |
| 20260508041630 | 38 | 0 | 1.0 | 3.0 | 0.00 | 0.00 | 0.00 | 87 | 1017.3 |
| 20260508040630 | 38 | 0 | 0.0 | 2.0 | 0.00 | 0.00 | 0.00 | 86 | 1017.2 |
| 20260508040130 | 38 | 0 | 1.0 | 3.0 | 0.00 | 0.00 | 0.00 | 86 | 1017.2 |
| 20260508035630 | 38 | 0 | 1.0 | 3.0 | 0.00 | 0.00 | 0.00 | 86 | 1017.2 |
| 20260508035130 | 38 | 0 | 2.0 | 3.0 | 0.00 | 0.00 | 0.00 | 85 | 1017.2 |
| 20260508034630 | 37 | 0 | 2.0 | 3.0 | 0.00 | 0.00 | 0.00 | 84 | 1017.2 |
| 20260508034130 | 37 | 0 | 2.0 | 3.0 | 0.00 | 0.00 | 0.00 | 84 | 1017.2 |
| 20260508033629 | 37 | 0 | 2.0 | 5.0 | 0.00 | 0.00 | 0.00 | 83 | 1017.2 |
| 20260508033131 | 37 | 4 | 2.0 | 3.0 | 0.00 | 0.00 | 0.00 | 83 | 1017.2 |
| 20260508032630 | 37 | 11 | 1.0 | 3.0 | 0.00 | 0.00 | 0.00 | 83 | 1017.2 |
| 20260508032129 | 37 | 13 | 3.0 | 3.0 | 0.00 | 0.00 | 0.00 | 83 | 1017.3 |
| 20260508031130 | 38 | 18 | 0.0 | 0.0 | 0.00 | 0.00 | 0.00 | 82 | 1017.3 |
| 20260508030130 | 38 | 12 | 0.0 | 0.0 | 0.00 | 0.00 | 0.00 | 82 | 1017.4 |
| 20260508025630 | 38 | 6 | 0.0 | 0.0 | 0.00 | 0.00 | 0.00 | 82 | 1017.4 |
| 20260508025130 | 38 | 9 | 0.0 | 0.0 | 0.00 | 0.00 | 0.00 | 82 | 1017.4 |
| 20260508024629 | 38 | 17 | 0.0 | 0.0 | 0.00 | 0.00 | 0.00 | 82 | 1017.5 |
| 20260508023630 | 38 | 19 | 3.0 | 5.0 | 0.00 | 0.00 | 0.00 | 82 | 1017.5 |
| 20260508023129 | 38 | 19 | 2.0 | 3.0 | 0.00 | 0.00 | 0.00 | 82 | 1017.5 |
| 20260508022629 | 38 | 12 | 1.0 | 3.0 | 0.00 | 0.00 | 0.00 | 82 | 1017.5 |
| 20260508022130 | 38 | 19 | 1.0 | 2.0 | 0.00 | 0.00 | 0.00 | 82 | 1017.6 |
| 20260508021630 | 38 | 18 | 0.0 | 2.0 | 0.00 | 0.00 | 0.00 | 82 | 1017.6 |
| 20260508021130 | 38 | 20 | 0.0 | 2.0 | 0.00 | 0.00 | 0.00 | 82 | 1017.6 |
| 20260508020630 | 38 | 20 | 0.0 | 2.0 | 0.00 | 0.00 | 0.00 | 82 | 1017.6 |
| 20260508020130 | 38 | 19 | 1.0 | 2.0 | 0.00 | 0.00 | 0.00 | 82 | 1017.6 |
| 20260508015629 | 38 | 19 | 0.0 | 2.0 | 0.00 | 0.00 | 0.00 | 82 | 1017.5 |
| 20260508015129 | 38 | 18 | 1.0 | 2.0 | 0.00 | 0.00 | 0.00 | 82 | 1017.6 |
| 20260508014130 | 38 | 17 | 1.0 | 2.0 | 0.00 | 0.00 | 0.00 | 83 | 1017.7 |
| 20260508013629 | 38 | 17 | 2.0 | 3.0 | 0.00 | 0.00 | 0.00 | 83 | 1017.7 |
| 20260508013130 | 39 | 18 | 2.0 | 5.0 | 0.00 | 0.00 | 0.00 | 83 | 1017.6 |
| 20260508012130 | 39 | 13 | 0.0 | 2.0 | 0.00 | 0.00 | 0.00 | 83 | 1017.7 |
| 20260508011630 | 39 | 10 | 1.0 | 2.0 | 0.00 | 0.01 | 0.00 | 83 | 1017.7 |
| 20260508011129 | 39 | 13 | 0.0 | 1.0 | 0.00 | 0.01 | 0.00 | 83 | 1017.7 |
| 20260508005629 | 39 | 14 | 1.0 | 2.0 | 0.00 | 0.01 | 0.00 | 83 | 1017.7 |
| 20260508004630 | 39 | 6 | 0.0 | 2.0 | 0.00 | 0.01 | 0.00 | 83 | 1017.6 |
| 20260508004130 | 39 | 7 | 0.0 | 2.0 | 0.00 | 0.01 | 0.00 | 82 | 1017.6 |
| 20260508003129 | 39 | 7 | 0.0 | 0.0 | 0.00 | 0.01 | 0.00 | 82 | 1017.6 |
| 20260508002629 | 39 | 12 | 0.0 | 1.0 | 0.00 | 0.01 | 0.00 | 82 | 1017.6 |
| 20260508002129 | 39 | 15 | 0.0 | 0.0 | 0.00 | 0.01 | 0.00 | 82 | 1017.7 |
| 20260508001630 | 38 | 11 | 0.0 | 0.0 | 0.00 | 0.01 | 0.00 | 82 | 1017.6 |
| 20260508001129 | 38 | 14 | 0.0 | 0.0 | 0.00 | 0.01 | 0.00 | 82 | 1017.7 |
| 20260508000130 | 38 | 9 | 2.0 | 3.0 | 0.00 | 0.01 | 0.00 | 83 | 1017.7 |
| 20260507235630 | 38 | 13 | 1.0 | 2.0 | 0.00 | 0.01 | 0.00 | 83 | 1017.7 |
| 20260507235130 | 38 | 6 | 0.0 | 3.0 | 0.00 | 0.01 | 0.00 | 82 | 1017.8 |
| 20260507234629 | 38 | 6 | 1.0 | 2.0 | 0.00 | 0.01 | 0.00 | 82 | 1017.7 |
| 20260507233629 | 38 | 11 | 1.0 | 3.0 | 0.00 | 0.01 | 0.00 | 82 | 1017.7 |
| 20260507233130 | 38 | 15 | 1.0 | 2.0 | 0.00 | 0.01 | 0.00 | 82 | 1017.8 |
| 20260507232630 | 38 | 11 | 1.0 | 3.0 | 0.00 | 0.01 | 0.00 | 82 | 1017.9 |
| 20260507232129 | 39 | 13 | 1.0 | 2.0 | 0.00 | 0.01 | 0.00 | 82 | 1018.0 |
| 20260507231629 | 39 | 13 | 1.0 | 2.0 | 0.00 | 0.01 | 0.00 | 82 | 1018.1 |
| 20260507231129 | 39 | 11 | 1.0 | 3.0 | 0.00 | 0.01 | 0.00 | 82 | 1018.1 |
| 20260507230630 | 39 | 10 | 1.0 | 2.0 | 0.00 | 0.01 | 0.00 | 82 | 1018.2 |
| 20260507230130 | 39 | 18 | 2.0 | 3.0 | 0.00 | 0.01 | 0.00 | 82 | 1018.2 |
| 20260507225630 | 39 | 7 | 1.0 | 5.0 | 0.00 | 0.01 | 0.00 | 82 | 1018.1 |
| 20260507225130 | 39 | 16 | 1.0 | 5.0 | 0.00 | 0.01 | 0.00 | 82 | 1018.2 |
| 20260507224629 | 39 | 11 | 2.0 | 5.0 | 0.00 | 0.01 | 0.00 | 82 | 1018.1 |
| 20260507223629 | 39 | 9 | 2.0 | 3.0 | 0.00 | 0.01 | 0.00 | 82 | 1018.1 |
| 20260507223129 | 39 | 10 | 1.0 | 2.0 | 0.00 | 0.01 | 0.00 | 82 | 1018.0 |
| 20260507222129 | 39 | 12 | 2.0 | 3.0 | 0.00 | 0.01 | 0.00 | 82 | 1017.9 |
| 20260507221629 | 39 | 14 | 0.0 | 1.0 | 0.00 | 0.01 | 0.00 | 82 | 1017.9 |
| 20260507221130 | 39 | 9 | 0.0 | 1.0 | 0.00 | 0.01 | 0.00 | 82 | 1017.9 |
| 20260507220630 | 39 | 23 | 0.0 | 1.0 | 0.00 | 0.01 | 0.00 | 82 | 1018.0 |
| 20260507220130 | 39 | 16 | 2.0 | 5.0 | 0.00 | 0.01 | 0.00 | 82 | 1018.0 |
| 20260507215629 | 39 | 10 | 1.0 | 2.0 | 0.00 | 0.01 | 0.01 | 82 | 1017.9 |
| 20260507215129 | 39 | 13 | 1.0 | 3.0 | 0.00 | 0.01 | 0.01 | 82 | 1017.9 |
| 20260507214629 | 39 | 11 | 1.0 | 3.0 | 0.00 | 0.01 | 0.01 | 82 | 1017.9 |
| 20260507214129 | 39 | 9 | 2.0 | 3.0 | 0.00 | 0.01 | 0.01 | 82 | 1018.0 |
| 20260507213629 | 39 | 7 | 2.0 | 3.0 | 0.00 | 0.01 | 0.01 | 82 | 1018.0 |
| 20260507213129 | 39 | 12 | 3.0 | 5.0 | 0.00 | 0.01 | 0.01 | 82 | 1017.9 |
| 20260507212129 | 39 | 13 | 2.0 | 5.0 | 0.00 | 0.01 | 0.01 | 82 | 1017.9 |
| 20260507211629 | 39 | 9 | 2.0 | 3.0 | 0.00 | 0.01 | 0.01 | 82 | 1017.9 |
| 20260507211130 | 39 | 13 | 2.0 | 3.0 | 0.00 | 0.01 | 0.01 | 82 | 1018.0 |
| 20260507210629 | 39 | 15 | 2.0 | 5.0 | 0.00 | 0.01 | 0.01 | 82 | 1017.9 |
| 20260507210130 | 39 | 6 | 2.0 | 3.0 | 0.00 | 0.01 | 0.01 | 82 | 1018.0 |
| 20260507205629 | 39 | 9 | 1.0 | 5.0 | 0.00 | 0.01 | 0.01 | 82 | 1017.9 |
| 20260507205129 | 39 | 10 | 3.0 | 5.0 | 0.00 | 0.01 | 0.01 | 82 | 1017.9 |
| 20260507204629 | 40 | 10 | 1.0 | 3.0 | 0.00 | 0.01 | 0.01 | 82 | 1018.0 |
| 20260507204129 | 40 | 7 | 3.0 | 6.0 | 0.00 | 0.01 | 0.01 | 82 | 1017.9 |
| 20260507203629 | 40 | 11 | 5.0 | 7.0 | 0.00 | 0.01 | 0.01 | 82 | 1017.8 |
| 20260507203129 | 40 | 15 | 5.0 | 8.0 | 0.00 | 0.01 | 0.01 | 82 | 1017.8 |
| 20260507202629 | 40 | 9 | 2.0 | 5.0 | 0.00 | 0.01 | 0.01 | 82 | 1017.8 |
| 20260507201629 | 40 | 13 | 2.0 | 5.0 | 0.00 | 0.01 | 0.01 | 82 | 1017.8 |
| 20260507201129 | 40 | 12 | 4.0 | 7.0 | 0.00 | 0.01 | 0.01 | 82 | 1017.7 |
| 20260507200630 | 40 | 14 | 2.0 | 5.0 | 0.00 | 0.01 | 0.01 | 82 | 1017.7 |
| 20260507200130 | 40 | 11 | 2.0 | 5.0 | 0.00 | 0.01 | 0.01 | 82 | 1017.7 |
| 20260507195129 | 40 | 15 | 3.0 | 6.0 | 0.00 | 0.01 | 0.01 | 82 | 1017.6 |
| 20260507194630 | 39 | 14 | 5.0 | 8.0 | 0.00 | 0.01 | 0.01 | 82 | 1017.6 |
| 20260507194129 | 40 | 13 | 1.0 | 3.0 | 0.00 | 0.01 | 0.01 | 82 | 1017.5 |
| 20260507193129 | 40 | 21 | 2.0 | 5.0 | 0.00 | 0.01 | 0.01 | 82 | 1017.4 |
| 20260507192130 | 40 | 11 | 2.0 | 3.0 | 0.00 | 0.01 | 0.01 | 82 | 1017.2 |
| 20260507191629 | 39 | 13 | 5.0 | 7.0 | 0.00 | 0.01 | 0.01 | 82 | 1017.2 |
| 20260507191129 | 39 | 12 | 2.0 | 6.0 | 0.00 | 0.01 | 0.01 | 82 | 1017.1 |
| 20260507190629 | 39 | 17 | 3.0 | 6.0 | 0.00 | 0.01 | 0.01 | 82 | 1017.1 |
| 20260507190129 | 40 | 14 | 5.0 | 7.0 | 0.00 | 0.01 | 0.01 | 82 | 1017.1 |
| 20260507185629 | 39 | 14 | 3.0 | 7.0 | 0.00 | 0.01 | 0.01 | 82 | 1017.1 |
| 20260507185129 | 40 | 18 | 3.0 | 7.0 | 0.00 | 0.01 | 0.01 | 82 | 1017.0 |
| 20260507184629 | 40 | 15 | 5.0 | 9.0 | 0.00 | 0.01 | 0.01 | 82 | 1016.9 |
| 20260507184129 | 40 | 18 | 5.0 | 9.0 | 0.00 | 0.01 | 0.01 | 82 | 1016.9 |
| 20260507183629 | 40 | 20 | 3.0 | 5.0 | 0.00 | 0.01 | 0.01 | 83 | 1016.9 |
| 20260507183129 | 40 | 16 | 4.0 | 7.0 | 0.00 | 0.01 | 0.01 | 83 | 1016.8 |
| 20260507182629 | 40 | 9 | 5.0 | 9.0 | 0.00 | 0.01 | 0.01 | 83 | 1016.8 |
| 20260507182129 | 40 | 18 | 2.0 | 6.0 | 0.00 | 0.01 | 0.01 | 83 | 1016.7 |
| 20260507181629 | 40 | 21 | 3.0 | 8.0 | 0.00 | 0.01 | 0.01 | 84 | 1016.6 |
| 20260507181129 | 40 | 16 | 4.0 | 7.0 | 0.00 | 0.01 | 0.01 | 84 | 1016.5 |
| 20260507180629 | 40 | 18 | 4.0 | 9.0 | 0.00 | 0.01 | 0.01 | 85 | 1016.6 |
| 20260507175629 | 40 | 20 | 1.0 | 3.0 | 0.00 | 0.01 | 0.01 | 87 | 1016.4 |
| 20260507174629 | 40 | 17 | 4.0 | 8.0 | 0.00 | 0.01 | 0.01 | 87 | 1016.3 |
| 20260507174129 | 40 | 19 | 4.0 | 7.0 | 0.00 | 0.01 | 0.01 | 87 | 1016.3 |
| 20260507173629 | 40 | 19 | 1.0 | 2.0 | 0.00 | 0.01 | 0.01 | 86 | 1016.2 |
| 20260507173129 | 40 | 19 | 2.0 | 3.0 | 0.00 | 0.01 | 0.01 | 86 | 1016.2 |
| 20260507172129 | 41 | 19 | 2.0 | 5.0 | 0.00 | 0.01 | 0.01 | 87 | 1016.2 |
| 20260507171129 | 41 | 19 | 3.0 | 6.0 | 0.00 | 0.01 | 0.01 | 88 | 1016.2 |
| 20260507170630 | 41 | 16 | 3.0 | 5.0 | 0.00 | 0.01 | 0.01 | 88 | 1016.1 |
| 20260507170129 | 41 | 16 | 2.0 | 10.0 | 0.00 | 0.01 | 0.01 | 88 | 1016.1 |
| 20260507165129 | 41 | 14 | 3.0 | 6.0 | 0.00 | 0.01 | 0.01 | 88 | 1016.1 |
| 20260507164629 | 41 | 19 | 5.0 | 7.0 | 0.00 | 0.01 | 0.01 | 88 | 1016.2 |
| 20260507163629 | 41 | 20 | 3.0 | 6.0 | 0.00 | 0.01 | 0.01 | 88 | 1016.1 |
| 20260507163129 | 41 | 16 | 5.0 | 8.0 | 0.00 | 0.01 | 0.01 | 88 | 1016.1 |
| 20260507161629 | 41 | 17 | 5.0 | 10.0 | 0.00 | 0.01 | 0.01 | 88 | 1016.0 |
| 20260507161129 | 41 | 18 | 5.0 | 9.0 | 0.00 | 0.01 | 0.01 | 88 | 1015.9 |
| 20260507160629 | 41 | 16 | 6.0 | 12.0 | 0.00 | 0.01 | 0.01 | 87 | 1015.8 |
| 20260507155129 | 43 | 18 | 7.0 | 10.0 | 0.00 | 0.01 | 0.01 | 87 | 1015.7 |
| 20260507154629 | 45 | 17 | 2.0 | 6.0 | 0.00 | 0.02 | 0.01 | 88 | 1015.7 |